| time (UTC) | temp F | wind direction | speed MPH | gust MPH | rain 1hr in | rain 24hr in | rain mn in | humidity % | barometer mb |
| 20260510224230 | 83 | 86 | 6.0 | 14.0 | 0.00 | 0.00 | 0.00 | 21 | 1017.6 |
| 20260510223731 | 84 | 111 | 5.0 | 14.0 | 0.00 | 0.00 | 0.00 | 21 | 1017.3 |
| 20260510223231 | 83 | 78 | 6.0 | 13.0 | 0.00 | 0.00 | 0.00 | 17 | 1017.2 |
| 20260510222731 | 81 | 128 | 7.0 | 14.0 | 0.00 | 0.00 | 0.00 | 21 | 1017.0 |
| 20260510222230 | 81 | 195 | 8.0 | 18.0 | 0.00 | 0.00 | 0.00 | 27 | 1017.1 |
| 20260510221947 | 82 | 53 | 10.0 | 22.0 | 0.00 | 0.00 | 0.00 | 27 | 1017.6 |
| 20260510221221 | 83 | 19 | 11.0 | 22.0 | 0.00 | 0.00 | 0.00 | 22 | 1017.4 |
| 20260510220716 | 83 | 65 | 12.0 | 22.0 | 0.00 | 0.00 | 0.00 | 22 | 1017.3 |
| 20260510220209 | 84 | 61 | 12.0 | 22.0 | 0.00 | 0.00 | 0.00 | 21 | 1017.1 |
| 20260510215707 | 85 | 91 | 9.0 | 18.0 | 0.00 | 0.00 | 0.00 | 21 | 1017.0 |
| 20260510215204 | 86 | 18 | 7.0 | 16.0 | 0.00 | 0.00 | 0.00 | 17 | 1017.0 |
| 20260510215143 | 87 | 86 | 6.0 | 16.0 | 0.00 | 0.00 | 0.00 | 16 | 1017.0 |
| 20260510214433 | 88 | 88 | 5.0 | 9.0 | 0.00 | 0.00 | 0.00 | 13 | 1016.9 |
| 20260510213924 | 88 | 115 | 4.0 | 9.0 | 0.00 | 0.00 | 0.00 | 13 | 1016.9 |
| 20260510213205 | 88 | 77 | 4.0 | 8.0 | 0.00 | 0.00 | 0.00 | 13 | 1016.9 |
| 20260510212704 | 88 | 128 | 4.0 | 8.0 | 0.00 | 0.00 | 0.00 | 13 | 1016.9 |
| 20260510212204 | 88 | 141 | 5.0 | 10.0 | 0.00 | 0.00 | 0.00 | 13 | 1017.0 |
| 20260510211703 | 89 | 92 | 6.0 | 10.0 | 0.00 | 0.00 | 0.00 | 13 | 1017.0 |
| 20260510211204 | 89 | 122 | 5.0 | 10.0 | 0.00 | 0.00 | 0.00 | 13 | 1016.9 |
| 20260510210702 | 88 | 113 | 5.0 | 8.0 | 0.00 | 0.00 | 0.00 | 13 | 1017.0 |
| 20260510210354 | 88 | 130 | 6.0 | 12.0 | 0.00 | 0.00 | 0.00 | 13 | 1016.9 |
| 20260510205907 | 89 | 113 | 5.0 | 12.0 | 0.00 | 0.00 | 0.00 | 13 | 1017.0 |
| 20260510204704 | 89 | 87 | 7.0 | 16.0 | 0.00 | 0.00 | 0.00 | 13 | 1017.1 |
| 20260510204203 | 90 | 147 | 7.0 | 16.0 | 0.00 | 0.00 | 0.00 | 13 | 1017.0 |
| 20260510203703 | 91 | 86 | 6.0 | 12.0 | 0.00 | 0.00 | 0.00 | 13 | 1017.4 |
| 20260510203202 | 90 | 166 | 6.0 | 10.0 | 0.00 | 0.00 | 0.00 | 13 | 1017.2 |
| 20260510202705 | 90 | 227 | 7.0 | 11.0 | 0.00 | 0.00 | 0.00 | 13 | 1017.2 |
| 20260510202423 | 90 | 121 | 7.0 | 12.0 | 0.00 | 0.00 | 0.00 | 14 | 1017.1 |
| 20260510201703 | 90 | 148 | 6.0 | 12.0 | 0.00 | 0.00 | 0.00 | 13 | 1017.2 |
| 20260510201202 | 89 | 142 | 3.0 | 12.0 | 0.00 | 0.00 | 0.00 | 14 | 1017.2 |
| 20260510200703 | 89 | 46 | 6.0 | 12.0 | 0.00 | 0.00 | 0.00 | 13 | 1017.4 |
| 20260510200202 | 89 | 155 | 8.0 | 14.0 | 0.00 | 0.00 | 0.00 | 13 | 1017.6 |
| 20260510195923 | 89 | 164 | 9.0 | 15.0 | 0.00 | 0.00 | 0.00 | 13 | 1017.4 |
| 20260510195203 | 89 | 118 | 9.0 | 15.0 | 0.00 | 0.00 | 0.00 | 14 | 1017.6 |
| 20260510194702 | 89 | 86 | 8.0 | 15.0 | 0.00 | 0.00 | 0.00 | 15 | 1017.4 |
| 20260510194202 | 88 | 108 | 8.0 | 16.0 | 0.00 | 0.00 | 0.00 | 15 | 1017.6 |
| 20260510193931 | 89 | 128 | 9.0 | 16.0 | 0.00 | 0.00 | 0.00 | 15 | 1017.6 |
| 20260510193203 | 89 | 144 | 8.0 | 14.0 | 0.00 | 0.00 | 0.00 | 14 | 1017.6 |
| 20260510192704 | 89 | 154 | 8.0 | 12.0 | 0.00 | 0.00 | 0.00 | 15 | 1017.7 |
| 20260510192205 | 89 | 136 | 8.0 | 15.0 | 0.00 | 0.00 | 0.00 | 14 | 1017.9 |
| 20260510191702 | 89 | 131 | 5.0 | 15.0 | 0.00 | 0.00 | 0.00 | 14 | 1017.8 |
| 20260510191202 | 89 | 161 | 4.0 | 9.0 | 0.00 | 0.00 | 0.00 | 12 | 1017.8 |
| 20260510190702 | 88 | 271 | 5.0 | 10.0 | 0.00 | 0.00 | 0.00 | 12 | 1017.7 |
| 20260510190202 | 88 | 235 | 6.0 | 10.0 | 0.00 | 0.00 | 0.00 | 12 | 1017.9 |
| 20260510185702 | 87 | 163 | 6.0 | 13.0 | 0.00 | 0.00 | 0.00 | 12 | 1018.0 |
| 20260510185203 | 88 | 119 | 7.0 | 13.0 | 0.00 | 0.00 | 0.00 | 11 | 1018.0 |
| 20260510184703 | 88 | 144 | 5.0 | 13.0 | 0.00 | 0.00 | 0.00 | 11 | 1018.1 |
| 20260510184203 | 89 | 133 | 2.0 | 13.0 | 0.00 | 0.00 | 0.00 | 12 | 1018.2 |
| 20260510183703 | 87 | 234 | 3.0 | 5.0 | 0.00 | 0.00 | 0.00 | 12 | 1018.2 |
| 20260510183203 | 86 | 94 | 4.0 | 8.0 | 0.00 | 0.00 | 0.00 | 12 | 1018.3 |
| 20260510182703 | 86 | 134 | 4.0 | 9.0 | 0.00 | 0.00 | 0.00 | 12 | 1018.3 |
| 20260510182202 | 86 | 128 | 4.0 | 10.0 | 0.00 | 0.00 | 0.00 | 13 | 1018.3 |
| 20260510181703 | 86 | 67 | 4.0 | 10.0 | 0.00 | 0.00 | 0.00 | 12 | 1018.3 |
| 20260510181203 | 85 | 101 | 5.0 | 11.0 | 0.00 | 0.00 | 0.00 | 13 | 1018.3 |
| 20260510180702 | 85 | 31 | 5.0 | 12.0 | 0.00 | 0.00 | 0.00 | 13 | 1018.6 |
| 20260510180202 | 85 | 46 | 6.0 | 14.0 | 0.00 | 0.00 | 0.00 | 13 | 1018.6 |
| 20260510175703 | 85 | 71 | 8.0 | 14.0 | 0.00 | 0.00 | 0.00 | 13 | 1018.6 |
| 20260510175202 | 85 | 40 | 7.0 | 13.0 | 0.00 | 0.00 | 0.00 | 14 | 1018.6 |
| 20260510174703 | 84 | 64 | 7.0 | 14.0 | 0.00 | 0.00 | 0.00 | 14 | 1018.6 |
| 20260510174157 | 85 | 26 | 8.0 | 14.0 | 0.00 | 0.00 | 0.00 | 14 | 1018.7 |
| 20260510173657 | 85 | 35 | 6.0 | 12.0 | 0.00 | 0.00 | 0.00 | 14 | 1018.7 |
| 20260510173158 | 85 | 28 | 5.0 | 11.0 | 0.00 | 0.00 | 0.00 | 15 | 1018.6 |
| 20260510172921 | 83 | 63 | 6.0 | 13.0 | 0.00 | 0.00 | 0.00 | 15 | 1018.7 |
| 20260510172158 | 83 | 55 | 8.0 | 14.0 | 0.00 | 0.00 | 0.00 | 15 | 1018.6 |
| 20260510171923 | 83 | 44 | 8.0 | 14.0 | 0.00 | 0.00 | 0.00 | 15 | 1018.7 |
| 20260510171422 | 84 | 17 | 8.0 | 16.0 | 0.00 | 0.00 | 0.00 | 14 | 1018.6 |
| 20260510170655 | 83 | 61 | 9.0 | 16.0 | 0.00 | 0.00 | 0.00 | 14 | 1018.7 |
| 20260510170155 | 83 | 26 | 8.0 | 16.0 | 0.00 | 0.00 | 0.00 | 15 | 1018.6 |
| 20260510165655 | 83 | 56 | 7.0 | 13.0 | 0.00 | 0.00 | 0.00 | 15 | 1018.6 |
| 20260510165156 | 83 | 22 | 8.0 | 15.0 | 0.00 | 0.00 | 0.00 | 15 | 1018.4 |
| 20260510164655 | 83 | 41 | 7.0 | 15.0 | 0.00 | 0.00 | 0.00 | 15 | 1018.4 |
| 20260510164154 | 83 | 47 | 8.0 | 16.0 | 0.00 | 0.00 | 0.00 | 15 | 1018.3 |
| 20260510163917 | 83 | 11 | 7.0 | 16.0 | 0.00 | 0.00 | 0.00 | 15 | 1018.3 |
| 20260510163153 | 83 | 336 | 6.0 | 13.0 | 0.00 | 0.00 | 0.00 | 15 | 1018.3 |
| 20260510162654 | 83 | 24 | 6.0 | 12.0 | 0.00 | 0.00 | 0.00 | 16 | 1018.2 |
| 20260510162154 | 83 | 53 | 8.0 | 15.0 | 0.00 | 0.00 | 0.00 | 16 | 1018.1 |
| 20260510161654 | 83 | 66 | 9.0 | 16.0 | 0.00 | 0.00 | 0.00 | 16 | 1018.0 |
| 20260510161154 | 83 | 58 | 8.0 | 16.0 | 0.00 | 0.00 | 0.00 | 15 | 1018.0 |
| 20260510160653 | 83 | 13 | 6.0 | 14.0 | 0.00 | 0.00 | 0.00 | 16 | 1018.0 |
| 20260510160154 | 83 | 23 | 6.0 | 12.0 | 0.00 | 0.00 | 0.00 | 16 | 1017.9 |
| 20260510155653 | 82 | 5 | 8.0 | 15.0 | 0.00 | 0.00 | 0.00 | 16 | 1018.0 |
| 20260510155154 | 82 | 37 | 9.0 | 15.0 | 0.00 | 0.00 | 0.00 | 16 | 1018.0 |
| 20260510154654 | 82 | 24 | 10.0 | 17.0 | 0.00 | 0.00 | 0.00 | 16 | 1017.9 |
| 20260510154153 | 81 | 5 | 11.0 | 18.0 | 0.00 | 0.00 | 0.00 | 16 | 1017.9 |
| 20260510153653 | 81 | 53 | 10.0 | 18.0 | 0.00 | 0.00 | 0.00 | 16 | 1017.8 |
| 20260510153154 | 81 | 15 | 10.0 | 17.0 | 0.00 | 0.00 | 0.00 | 16 | 1017.8 |
| 20260510152654 | 80 | 44 | 11.0 | 18.0 | 0.00 | 0.00 | 0.00 | 16 | 1017.9 |
| 20260510152154 | 80 | 42 | 11.0 | 18.0 | 0.00 | 0.00 | 0.00 | 16 | 1017.8 |
| 20260510151910 | 80 | 26 | 11.0 | 19.0 | 0.00 | 0.00 | 0.00 | 16 | 1017.8 |
| 20260510151149 | 80 | 47 | 11.0 | 19.0 | 0.00 | 0.00 | 0.00 | 16 | 1017.7 |
| 20260510150649 | 80 | 31 | 10.0 | 18.0 | 0.00 | 0.00 | 0.00 | 16 | 1017.7 |
| 20260510150150 | 80 | 18 | 10.0 | 17.0 | 0.00 | 0.00 | 0.00 | 16 | 1017.7 |
| 20260510145650 | 80 | 5 | 9.0 | 17.0 | 0.00 | 0.00 | 0.00 | 16 | 1017.6 |
| 20260510145638 | 80 | 25 | 9.0 | 16.0 | 0.00 | 0.00 | 0.00 | 15 | 1017.6 |
| 20260510144650 | 79 | 67 | 12.0 | 21.0 | 0.00 | 0.00 | 0.00 | 16 | 1017.4 |
| 20260510144150 | 79 | 39 | 12.0 | 21.0 | 0.00 | 0.00 | 0.00 | 15 | 1017.4 |
| 20260510143910 | 79 | 33 | 11.0 | 20.0 | 0.00 | 0.00 | 0.00 | 15 | 1017.2 |
| 20260510143148 | 78 | 36 | 9.0 | 17.0 | 0.00 | 0.00 | 0.00 | 16 | 1017.2 |
| 20260510142916 | 78 | 27 | 8.0 | 14.0 | 0.00 | 0.00 | 0.00 | 16 | 1017.2 |
| 20260510142148 | 77 | 43 | 8.0 | 17.0 | 0.00 | 0.00 | 0.00 | 16 | 1017.0 |
| 20260510141647 | 77 | 19 | 9.0 | 17.0 | 0.00 | 0.00 | 0.00 | 16 | 1017.1 |
| 20260510141408 | 77 | 13 | 7.0 | 15.0 | 0.00 | 0.00 | 0.00 | 16 | 1016.9 |
| 20260510140647 | 77 | 345 | 5.0 | 13.0 | 0.00 | 0.00 | 0.00 | 16 | 1016.8 |
| 20260510140140 | 77 | 341 | 5.0 | 11.0 | 0.00 | 0.00 | 0.00 | 16 | 1016.8 |
| 20260510135634 | 77 | 18 | 6.0 | 14.0 | 0.00 | 0.00 | 0.00 | 16 | 1016.8 |
| 20260510135133 | 76 | 5 | 6.0 | 14.0 | 0.00 | 0.00 | 0.00 | 16 | 1016.7 |
| 20260510134633 | 76 | 9 | 5.0 | 10.0 | 0.00 | 0.00 | 0.00 | 16 | 1016.5 |
| 20260510134131 | 76 | 19 | 5.0 | 10.0 | 0.00 | 0.00 | 0.00 | 17 | 1016.4 |
| 20260510133632 | 76 | 32 | 5.0 | 9.0 | 0.00 | 0.00 | 0.00 | 17 | 1016.4 |
| 20260510133131 | 76 | 33 | 4.0 | 9.0 | 0.00 | 0.00 | 0.00 | 17 | 1016.3 |
| 20260510132632 | 76 | 10 | 3.0 | 6.0 | 0.00 | 0.00 | 0.00 | 17 | 1016.2 |
| 20260510132354 | 76 | 19 | 3.0 | 5.0 | 0.00 | 0.00 | 0.00 | 17 | 1016.2 |
| 20260510131630 | 76 | 0 | 4.0 | 7.0 | 0.00 | 0.00 | 0.00 | 17 | 1016.1 |
| 20260510131129 | 76 | 11 | 3.0 | 8.0 | 0.00 | 0.00 | 0.00 | 17 | 1016.1 |
| 20260510130630 | 76 | 355 | 3.0 | 8.0 | 0.00 | 0.00 | 0.00 | 17 | 1016.0 |
| 20260510130130 | 76 | 355 | 4.0 | 6.0 | 0.00 | 0.00 | 0.00 | 17 | 1016.0 |
| 20260510125855 | 75 | 16 | 4.0 | 8.0 | 0.00 | 0.00 | 0.00 | 17 | 1015.8 |
| 20260510125129 | 75 | 10 | 4.0 | 8.0 | 0.00 | 0.00 | 0.00 | 17 | 1015.8 |
| 20260510124629 | 76 | 27 | 5.0 | 9.0 | 0.00 | 0.00 | 0.00 | 16 | 1015.5 |
| 20260510124129 | 76 | 47 | 4.0 | 9.0 | 0.00 | 0.00 | 0.00 | 16 | 1015.3 |
| 20260510123629 | 76 | 29 | 3.0 | 7.0 | 0.00 | 0.00 | 0.00 | 16 | 1015.2 |
| 20260510123129 | 76 | 15 | 3.0 | 5.0 | 0.00 | 0.00 | 0.00 | 16 | 1015.0 |
| 20260510122627 | 76 | 348 | 4.0 | 8.0 | 0.00 | 0.00 | 0.00 | 16 | 1014.7 |
| 20260510122121 | 77 | 9 | 4.0 | 9.0 | 0.00 | 0.00 | 0.00 | 15 | 1014.7 |
| 20260510121614 | 77 | 9 | 4.0 | 9.0 | 0.00 | 0.00 | 0.00 | 15 | 1014.7 |
| 20260510121109 | 77 | 14 | 4.0 | 9.0 | 0.00 | 0.00 | 0.00 | 15 | 1014.6 |
| 20260510120603 | 78 | 0 | 5.0 | 10.0 | 0.00 | 0.00 | 0.00 | 15 | 1014.5 |
| 20260510120104 | 78 | 9 | 5.0 | 13.0 | 0.00 | 0.00 | 0.00 | 15 | 1014.4 |
| 20260510115603 | 78 | 325 | 5.0 | 13.0 | 0.00 | 0.00 | 0.00 | 15 | 1014.3 |
| 20260510115103 | 79 | 24 | 6.0 | 12.0 | 0.00 | 0.00 | 0.00 | 14 | 1014.2 |
| 20260510114605 | 79 | 5 | 7.0 | 13.0 | 0.00 | 0.00 | 0.00 | 14 | 1014.2 |
| 20260510114104 | 79 | 336 | 9.0 | 18.0 | 0.00 | 0.00 | 0.00 | 14 | 1014.2 |
| 20260510113603 | 80 | 308 | 8.0 | 18.0 | 0.00 | 0.00 | 0.00 | 14 | 1014.1 |
| 20260510113103 | 80 | 323 | 8.0 | 20.0 | 0.00 | 0.00 | 0.00 | 13 | 1014.0 |
| 20260510112602 | 80 | 333 | 10.0 | 20.0 | 0.00 | 0.00 | 0.00 | 13 | 1014.0 |
| 20260510112103 | 80 | 345 | 10.0 | 20.0 | 0.00 | 0.00 | 0.00 | 13 | 1014.0 |
| 20260510111603 | 80 | 345 | 10.0 | 17.0 | 0.00 | 0.00 | 0.00 | 13 | 1013.8 |
| 20260510111103 | 81 | 317 | 10.0 | 17.0 | 0.00 | 0.00 | 0.00 | 13 | 1013.6 |
| 20260510110603 | 81 | 355 | 10.0 | 16.0 | 0.00 | 0.00 | 0.00 | 13 | 1013.7 |
| 20260510110324 | 81 | 298 | 9.0 | 17.0 | 0.00 | 0.00 | 0.00 | 12 | 1013.5 |
| 20260510105602 | 81 | 327 | 9.0 | 17.0 | 0.00 | 0.00 | 0.00 | 12 | 1013.6 |
| 20260510105327 | 81 | 298 | 10.0 | 20.0 | 0.00 | 0.00 | 0.00 | 12 | 1013.6 |
| 20260510104606 | 81 | 331 | 10.0 | 20.0 | 0.00 | 0.00 | 0.00 | 12 | 1013.6 |
| 20260510104103 | 81 | 316 | 10.0 | 17.0 | 0.00 | 0.00 | 0.00 | 12 | 1013.5 |
| 20260510103559 | 82 | 329 | 10.0 | 17.0 | 0.00 | 0.00 | 0.00 | 12 | 1013.4 |
| 20260510103057 | 81 | 351 | 7.0 | 16.0 | 0.00 | 0.00 | 0.00 | 12 | 1013.5 |
| 20260510102819 | 81 | 330 | 6.0 | 14.0 | 0.00 | 0.00 | 0.00 | 13 | 1013.5 |
| 20260510102054 | 81 | 325 | 5.0 | 11.0 | 0.00 | 0.00 | 0.00 | 13 | 1013.4 |
| 20260510101554 | 81 | 330 | 7.0 | 15.0 | 0.00 | 0.00 | 0.00 | 12 | 1013.3 |
| 20260510101054 | 81 | 314 | 8.0 | 15.0 | 0.00 | 0.00 | 0.00 | 12 | 1013.3 |
| 20260510100815 | 82 | 314 | 9.0 | 14.0 | 0.00 | 0.00 | 0.00 | 12 | 1013.4 |
| 20260510100051 | 82 | 311 | 9.0 | 17.0 | 0.00 | 0.00 | 0.00 | 12 | 1013.4 |
| 20260510095550 | 82 | 319 | 8.0 | 17.0 | 0.00 | 0.00 | 0.00 | 12 | 1013.3 |
| 20260510095050 | 82 | 288 | 7.0 | 14.0 | 0.00 | 0.00 | 0.00 | 12 | 1013.3 |
| 20260510094550 | 82 | 302 | 8.0 | 16.0 | 0.00 | 0.00 | 0.00 | 12 | 1013.2 |
| 20260510094050 | 82 | 309 | 8.0 | 16.0 | 0.00 | 0.00 | 0.00 | 12 | 1013.2 |
| 20260510093548 | 82 | 323 | 6.0 | 15.0 | 0.00 | 0.00 | 0.00 | 12 | 1013.1 |
| 20260510093306 | 82 | 320 | 7.0 | 13.0 | 0.00 | 0.00 | 0.00 | 11 | 1012.9 |
| 20260510092816 | 82 | 327 | 8.0 | 20.0 | 0.00 | 0.00 | 0.00 | 11 | 1012.9 |
| 20260510092046 | 82 | 327 | 10.0 | 20.0 | 0.00 | 0.00 | 0.00 | 11 | 1013.1 |
| 20260510091545 | 82 | 308 | 11.0 | 20.0 | 0.00 | 0.00 | 0.00 | 11 | 1012.8 |
| 20260510091045 | 82 | 277 | 12.0 | 21.0 | 0.00 | 0.00 | 0.00 | 11 | 1012.9 |
| 20260510090545 | 82 | 287 | 12.0 | 21.0 | 0.00 | 0.00 | 0.00 | 11 | 1012.8 |
| 20260510090307 | 82 | 285 | 12.0 | 22.0 | 0.00 | 0.00 | 0.00 | 11 | 1012.8 |
| 20260510085546 | 82 | 304 | 12.0 | 22.0 | 0.00 | 0.00 | 0.00 | 11 | 1012.9 |
| 20260510085045 | 82 | 284 | 12.0 | 22.0 | 0.00 | 0.00 | 0.00 | 11 | 1012.9 |
| 20260510084545 | 82 | 306 | 12.0 | 19.0 | 0.00 | 0.00 | 0.00 | 11 | 1013.1 |
| 20260510084045 | 82 | 281 | 11.0 | 23.0 | 0.00 | 0.00 | 0.00 | 11 | 1012.9 |
| 20260510083545 | 83 | 299 | 11.0 | 23.0 | 0.00 | 0.00 | 0.00 | 11 | 1012.9 |
| 20260510083309 | 83 | 317 | 12.0 | 21.0 | 0.00 | 0.00 | 0.00 | 11 | 1012.8 |
| 20260510082545 | 83 | 320 | 13.0 | 21.0 | 0.00 | 0.00 | 0.00 | 11 | 1012.9 |
| 20260510082044 | 82 | 288 | 12.0 | 21.0 | 0.00 | 0.00 | 0.00 | 11 | 1012.9 |
| 20260510081809 | 81 | 308 | 10.0 | 21.0 | 0.00 | 0.00 | 0.00 | 11 | 1013.1 |
| 20260510081041 | 80 | 314 | 9.0 | 16.0 | 0.00 | 0.00 | 0.00 | 11 | 1013.1 |
| 20260510080539 | 80 | 325 | 9.0 | 15.0 | 0.00 | 0.00 | 0.00 | 11 | 1013.1 |
| 20260510080039 | 80 | 289 | 9.0 | 16.0 | 0.00 | 0.00 | 0.00 | 11 | 1012.9 |
| 20260510075758 | 80 | 277 | 10.0 | 18.0 | 0.00 | 0.00 | 0.00 | 11 | 1013.1 |
| 20260510075037 | 81 | 266 | 9.0 | 18.0 | 0.00 | 0.00 | 0.00 | 11 | 1013.2 |
| 20260510074537 | 81 | 284 | 8.0 | 15.0 | 0.00 | 0.00 | 0.00 | 11 | 1013.2 |
| 20260510074037 | 81 | 281 | 9.0 | 15.0 | 0.00 | 0.00 | 0.00 | 11 | 1013.2 |
| 20260510073806 | 82 | 300 | 9.0 | 14.0 | 0.00 | 0.00 | 0.00 | 11 | 1013.2 |
| 20260510073035 | 82 | 282 | 9.0 | 18.0 | 0.00 | 0.00 | 0.00 | 10 | 1013.1 |
| 20260510072537 | 82 | 292 | 9.0 | 18.0 | 0.00 | 0.00 | 0.00 | 10 | 1013.2 |
| 20260510072033 | 82 | 317 | 9.0 | 18.0 | 0.00 | 0.00 | 0.00 | 10 | 1013.2 |
| 20260510072017 | 81 | 302 | 8.0 | 17.0 | 0.00 | 0.00 | 0.00 | 10 | 1013.2 |
| 20260510071732 | 82 | 269 | 9.0 | 18.0 | 0.00 | 0.00 | 0.00 | 10 | 1013.2 |
| 20260510070532 | 81 | 316 | 7.0 | 13.0 | 0.00 | 0.00 | 0.00 | 11 | 1013.2 |
| 20260510070033 | 81 | 330 | 7.0 | 12.0 | 0.00 | 0.00 | 0.00 | 10 | 1013.2 |
| 20260510070020 | 82 | 282 | 7.0 | 15.0 | 0.00 | 0.00 | 0.00 | 10 | 1013.1 |
| 20260510065516 | 82 | 295 | 8.0 | 15.0 | 0.00 | 0.00 | 0.00 | 10 | 1013.2 |
| 20260510064531 | 82 | 268 | 8.0 | 15.0 | 0.00 | 0.00 | 0.00 | 10 | 1013.2 |
| 20260510064031 | 83 | 281 | 8.0 | 15.0 | 0.00 | 0.00 | 0.00 | 10 | 1013.3 |
| 20260510063531 | 83 | 295 | 8.0 | 14.0 | 0.00 | 0.00 | 0.00 | 10 | 1013.3 |
| 20260510063511 | 83 | 282 | 9.0 | 17.0 | 0.00 | 0.00 | 0.00 | 10 | 1013.2 |
| 20260510062755 | 84 | 279 | 8.0 | 17.0 | 0.00 | 0.00 | 0.00 | 9 | 1013.3 |
| 20260510062031 | 83 | 318 | 7.0 | 17.0 | 0.00 | 0.00 | 0.00 | 10 | 1013.3 |
| 20260510061531 | 83 | 283 | 7.0 | 17.0 | 0.00 | 0.00 | 0.00 | 10 | 1013.3 |
| 20260510061030 | 83 | 305 | 6.0 | 12.0 | 0.00 | 0.00 | 0.00 | 10 | 1013.3 |
| 20260510060531 | 83 | 280 | 7.0 | 13.0 | 0.00 | 0.00 | 0.00 | 9 | 1013.2 |
| 20260510060030 | 83 | 296 | 7.0 | 15.0 | 0.00 | 0.00 | 0.00 | 9 | 1013.1 |
| 20260510055756 | 83 | 285 | 7.0 | 12.0 | 0.00 | 0.00 | 0.00 | 9 | 1013.1 |
| 20260510055031 | 83 | 284 | 8.0 | 13.0 | 0.00 | 0.00 | 0.00 | 9 | 1012.9 |
| 20260510054533 | 83 | 279 | 7.0 | 13.0 | 0.00 | 0.00 | 0.00 | 9 | 1012.9 |
| 20260510054030 | 83 | 287 | 6.0 | 12.0 | 0.00 | 0.00 | 0.00 | 9 | 1013.1 |
| 20260510053531 | 83 | 277 | 5.0 | 12.0 | 0.00 | 0.00 | 0.00 | 9 | 1012.9 |
| 20260510053031 | 83 | 300 | 6.0 | 12.0 | 0.00 | 0.00 | 0.00 | 9 | 1013.1 |
| 20260510052531 | 83 | 299 | 6.0 | 12.0 | 0.00 | 0.00 | 0.00 | 9 | 1012.9 |
| 20260510052251 | 83 | 308 | 6.0 | 12.0 | 0.00 | 0.00 | 0.00 | 9 | 1012.9 |
| 20260510051530 | 83 | 304 | 6.0 | 12.0 | 0.00 | 0.00 | 0.00 | 9 | 1012.9 |
| 20260510051031 | 83 | 285 | 5.0 | 11.0 | 0.00 | 0.00 | 0.00 | 9 | 1012.9 |
| 20260510050755 | 83 | 319 | 5.0 | 10.0 | 0.00 | 0.00 | 0.00 | 9 | 1012.9 |
| 20260510050030 | 83 | 292 | 5.0 | 10.0 | 0.00 | 0.00 | 0.00 | 9 | 1013.1 |
| 20260510045531 | 84 | 286 | 5.0 | 11.0 | 0.00 | 0.00 | 0.00 | 9 | 1013.1 |
| 20260510045031 | 84 | 291 | 6.0 | 12.0 | 0.00 | 0.00 | 0.00 | 8 | 1013.1 |
| 20260510044531 | 84 | 292 | 7.0 | 12.0 | 0.00 | 0.00 | 0.00 | 8 | 1013.1 |
| 20260510044515 | 85 | 281 | 7.0 | 12.0 | 0.00 | 0.00 | 0.00 | 8 | 1013.1 |
| 20260510043530 | 85 | 279 | 7.0 | 14.0 | 0.00 | 0.00 | 0.00 | 8 | 1013.1 |
| 20260510043254 | 85 | 305 | 8.0 | 14.0 | 0.00 | 0.00 | 0.00 | 8 | 1013.1 |
| 20260510042531 | 85 | 301 | 8.0 | 13.0 | 0.00 | 0.00 | 0.00 | 8 | 1013.2 |
| 20260510042031 | 86 | 277 | 8.0 | 15.0 | 0.00 | 0.00 | 0.00 | 7 | 1013.1 |
| 20260510041531 | 86 | 280 | 8.0 | 15.0 | 0.00 | 0.00 | 0.00 | 7 | 1013.1 |
| 20260510041030 | 87 | 289 | 9.0 | 20.0 | 0.00 | 0.00 | 0.00 | 7 | 1012.9 |
| 20260510040757 | 87 | 279 | 10.0 | 20.0 | 0.00 | 0.00 | 0.00 | 7 | 1012.9 |
| 20260510040021 | 86 | 267 | 9.0 | 17.0 | 0.00 | 0.00 | 0.00 | 7 | 1012.8 |
| 20260510035514 | 86 | 302 | 8.0 | 16.0 | 0.00 | 0.00 | 0.00 | 7 | 1012.7 |
| 20260510035013 | 86 | 323 | 9.0 | 19.0 | 0.00 | 0.00 | 0.00 | 7 | 1012.7 |
| 20260510034734 | 87 | 297 | 10.0 | 19.0 | 0.00 | 0.00 | 0.00 | 7 | 1012.7 |
| 20260510034011 | 87 | 277 | 9.0 | 18.0 | 0.00 | 0.00 | 0.00 | 7 | 1012.7 |
| 20260510033731 | 87 | 271 | 8.0 | 16.0 | 0.00 | 0.00 | 0.00 | 7 | 1012.7 |
| 20260510033010 | 87 | 284 | 8.0 | 15.0 | 0.00 | 0.00 | 0.00 | 7 | 1012.7 |
| 20260510032735 | 87 | 283 | 7.0 | 14.0 | 0.00 | 0.00 | 0.00 | 8 | 1012.6 |
| 20260510032011 | 86 | 319 | 7.0 | 15.0 | 0.00 | 0.00 | 0.00 | 8 | 1012.6 |
| 20260510031511 | 87 | 275 | 8.0 | 15.0 | 0.00 | 0.00 | 0.00 | 8 | 1012.6 |
| 20260510031011 | 87 | 268 | 8.0 | 14.0 | 0.00 | 0.00 | 0.00 | 8 | 1012.6 |
| 20260510030511 | 87 | 254 | 8.0 | 14.0 | 0.00 | 0.00 | 0.00 | 8 | 1012.6 |
| 20260510030010 | 88 | 250 | 8.0 | 16.0 | 0.00 | 0.00 | 0.00 | 7 | 1012.5 |
| 20260510025510 | 88 | 250 | 7.0 | 16.0 | 0.00 | 0.00 | 0.00 | 7 | 1012.4 |
| 20260510025011 | 87 | 264 | 6.0 | 15.0 | 0.00 | 0.00 | 0.00 | 8 | 1012.2 |
| 20260510024510 | 88 | 275 | 8.0 | 17.0 | 0.00 | 0.00 | 0.00 | 8 | 1012.2 |
| 20260510024010 | 88 | 207 | 7.0 | 17.0 | 0.00 | 0.00 | 0.00 | 8 | 1012.0 |
| 20260510023510 | 87 | 238 | 5.0 | 10.0 | 0.00 | 0.00 | 0.00 | 8 | 1012.0 |
| 20260510023010 | 87 | 284 | 4.0 | 9.0 | 0.00 | 0.00 | 0.00 | 8 | 1011.9 |
| 20260510022507 | 87 | 232 | 3.0 | 8.0 | 0.00 | 0.00 | 0.00 | 8 | 1011.9 |
| 20260510022006 | 87 | 229 | 3.0 | 8.0 | 0.00 | 0.00 | 0.00 | 8 | 1011.7 |
| 20260510021507 | 87 | 253 | 3.0 | 7.0 | 0.00 | 0.00 | 0.00 | 9 | 1011.7 |
| 20260510021007 | 87 | 242 | 3.0 | 7.0 | 0.00 | 0.00 | 0.00 | 9 | 1011.6 |
| 20260510020505 | 88 | 231 | 3.0 | 7.0 | 0.00 | 0.00 | 0.00 | 9 | 1011.7 |
| 20260510020449 | 88 | 222 | 3.0 | 6.0 | 0.00 | 0.00 | 0.00 | 8 | 1011.7 |
| 20260510015502 | 88 | 223 | 4.0 | 8.0 | 0.00 | 0.00 | 0.00 | 8 | 1011.6 |
| 20260510015224 | 88 | 243 | 4.0 | 8.0 | 0.00 | 0.00 | 0.00 | 8 | 1011.6 |
| 20260510014502 | 89 | 250 | 4.0 | 7.0 | 0.00 | 0.00 | 0.00 | 8 | 1011.5 |
| 20260510014004 | 89 | 220 | 4.0 | 8.0 | 0.00 | 0.00 | 0.00 | 8 | 1011.5 |
| 20260510013503 | 89 | 218 | 4.0 | 8.0 | 0.00 | 0.00 | 0.00 | 7 | 1011.4 |
| 20260510013006 | 89 | 233 | 4.0 | 8.0 | 0.00 | 0.00 | 0.00 | 7 | 1011.3 |
| 20260510012459 | 90 | 268 | 3.0 | 8.0 | 0.00 | 0.00 | 0.00 | 7 | 1011.4 |
| 20260510011958 | 90 | 284 | 1.0 | 8.0 | 0.00 | 0.00 | 0.00 | 7 | 1011.3 |
| 20260510011458 | 91 | 246 | 1.0 | 6.0 | 0.00 | 0.00 | 0.00 | 6 | 1011.3 |
| 20260510010958 | 91 | 161 | 2.0 | 7.0 | 0.00 | 0.00 | 0.00 | 6 | 1011.4 |
| 20260510010458 | 91 | 144 | 2.0 | 7.0 | 0.00 | 0.00 | 0.00 | 6 | 1011.3 |
| 20260510010000 | 91 | 231 | 3.0 | 6.0 | 0.00 | 0.00 | 0.00 | 6 | 1011.3 |
| 20260510005458 | 91 | 242 | 6.0 | 11.0 | 0.00 | 0.00 | 0.00 | 6 | 1011.4 |
| 20260510004958 | 91 | 204 | 7.0 | 14.0 | 0.00 | 0.00 | 0.00 | 6 | 1011.4 |
| 20260510004945 | 91 | 221 | 7.0 | 14.0 | 0.00 | 0.00 | 0.00 | 6 | 1011.4 |
| 20260510003955 | 91 | 177 | 6.0 | 12.0 | 0.00 | 0.00 | 0.00 | 6 | 1011.4 |
| 20260510003455 | 92 | 244 | 5.0 | 12.0 | 0.00 | 0.00 | 0.00 | 6 | 1011.4 |
| 20260510002954 | 92 | 232 | 5.0 | 9.0 | 0.00 | 0.00 | 0.00 | 6 | 1011.4 |
| 20260510002454 | 92 | 329 | 5.0 | 10.0 | 0.00 | 0.00 | 0.00 | 6 | 1011.5 |
| 20260510001953 | 92 | 293 | 5.0 | 13.0 | 0.00 | 0.00 | 0.00 | 6 | 1011.5 |
| 20260510001453 | 92 | 296 | 7.0 | 13.0 | 0.00 | 0.00 | 0.00 | 6 | 1011.5 |
| 20260510000958 | 92 | 200 | 7.0 | 12.0 | 0.00 | 0.00 | 0.00 | 6 | 1011.4 |
| 20260510000455 | 92 | 221 | 6.0 | 12.0 | 0.00 | 0.00 | 0.00 | 6 | 1011.6 |
| 20260509235955 | 92 | 237 | 6.0 | 12.0 | 0.00 | 0.00 | 0.00 | 6 | 1011.6 |
| 20260509235447 | 92 | 225 | 8.0 | 15.0 | 0.00 | 0.00 | 0.00 | 6 | 1011.7 |
| 20260509234942 | 93 | 229 | 6.0 | 15.0 | 0.00 | 0.00 | 0.00 | 6 | 1011.6 |
| 20260509234436 | 92 | 327 | 4.0 | 11.0 | 0.00 | 0.00 | 0.00 | 6 | 1011.6 |
| 20260509233936 | 92 | 268 | 6.0 | 13.0 | 0.00 | 0.00 | 0.00 | 6 | 1011.8 |
| 20260509233436 | 92 | 219 | 5.0 | 13.0 | 0.00 | 0.00 | 0.00 | 6 | 1011.7 |
| 20260509232936 | 93 | 158 | 4.0 | 10.0 | 0.00 | 0.00 | 0.00 | 6 | 1011.8 |
| 20260509232434 | 92 | 290 | 4.0 | 10.0 | 0.00 | 0.00 | 0.00 | 6 | 1011.8 |
| 20260509231932 | 92 | 163 | 6.0 | 15.0 | 0.00 | 0.00 | 0.00 | 6 | 1011.9 |
| 20260509231432 | 92 | 205 | 8.0 | 15.0 | 0.00 | 0.00 | 0.00 | 6 | 1011.9 |
| 20260509230932 | 92 | 310 | 7.0 | 15.0 | 0.00 | 0.00 | 0.00 | 6 | 1011.9 |
| 20260509230431 | 93 | 16 | 7.0 | 14.0 | 0.00 | 0.00 | 0.00 | 6 | 1011.9 |
| 20260509225932 | 93 | 212 | 7.0 | 14.0 | 0.00 | 0.00 | 0.00 | 6 | 1012.0 |
| 20260509225432 | 93 | 318 | 7.0 | 13.0 | 0.00 | 0.00 | 0.00 | 6 | 1012.0 |
| 20260509225411 | 93 | 293 | 9.0 | 17.0 | 0.00 | 0.00 | 0.00 | 6 | 1012.0 |